sat.trackr.live / text

‹ back to catalog

STARLINK-30521

NORAD 57966 · 2023-151C

PAYLOAD ACTIVE UNKNOWN

§ Identity

Operator
Country
US
Launch date
2023-09-30
Launch site
AFETR
Launch vehicle
Mass (kg)
RCS (m²)

Purposes: comms

External: N2YO · Heavens-Above · Gunter

§ Orbital elements

Epoch: 2026-09-19T04:46:05.080224Z

Period
94.27 min
Inclination
43.0040°
Eccentricity
0.0001371
Mean motion
15.27577088 rev/d
Perigee alt
482.1 km
Apogee alt
484.0 km
Semi-major
6,861.2 km
B*
5.0558e-5
RAAN
322.9564°
Arg perigee
267.3816°
Mean anomaly
92.6878°
Rev number
16,536

§ Raw data

STARLINK-305211 57966U 23151C   26262.19866991  .00001129  00000+0  50558-4 0  99912 57966  43.0040 322.9564 0001371 267.3816  92.6878 15.27577088165363

JSON: /api/v1/satellites/57966 · /tle

For live sub-satellite position, see the globe view (requires WebGL).

§ Visibility from observer

Set your observer location to see the next 7 days of passes ≥ 10°. The values pass through the URL so the page stays shareable.

No JS? Fill the form by hand. The geolocation button needs JavaScript.